Oklahoma City, OK

8:27 AM CDT on October 18, 2017 (GMT -0500)
Will Rogers World

Weather History for KOKC - January, 2013

Change the Weather History Date:

Sunday, January 6, 2013

  Actual Average Record
Temperature  
Mean Temperature 39 °F 39 °F  
Max Temperature 52 °F 49 °F 75 °F (2008)
Min Temperature 26 °F 29 °F -2 °F (1912)
Degree Days  
Heating Degree Days 26 26  
Month to date heating degree days 177 156  
Since 1 July heating degree days 1406 1511  
Moisture  
Dew Point 22 °F    
Average Humidity 53    
Maximum Humidity 78    
Minimum Humidity 28    
Precipitation  
Precipitation 0.00 in 0.04 in 1.02 in (1934)
Month to date precipitation T 0.25  
Year to date precipitation T 0.25  
Snow  
Snow 0.00 in 0.10 in 8.30 in (1988)
Month to date snowfall T 0.5  
Since 1 July snowfall 1.4 3.0  
Snow Depth -    
Sea Level Pressure  
Sea Level Pressure 30.37 in    
Wind  
Wind Speed 6 mph (NNW)    
Max Wind Speed 13 mph    
Max Gust Speed 14 mph    
Visibility 10 miles    
Events      
T = Trace of Precipitation, MM = Missing Value Source: NWS Daily Summary

Daily Weather History Graph

Daily Weather History Graph

Search for Another Location

Airport or City:

Trip Planner

Search our weather history database for the weather conditions in past years. The results will help you decide how hot, cold, wet, or windy it might be!

Date:

Astronomy

Jan. 06, 2013 Rise Set
Actual Time 7:39 AM CST 5:33 PM CST
Civil Twilight 7:11 AM CST 6:01 PM CST
Nautical Twilight 6:40 AM CST 6:32 PM CST
Astronomical Twilight 6:09 AM CST 7:03 PM CST
Moon 2:00 AM CST (1/6) 12:57 PM CST (1/6)
Length of Visible Light 10h 49m
Length of Day
9h 53m
Waning Crescent, 33% of the Moon is Illuminated
Jan 6
Waning Crescent
Jan 11
New
Jan 18
First Quarter
Jan 26
Full
Feb 3
Last Quarter

Hourly Weather History & Observations

Time (CST) Temp. Windchill Dew Point Humidity Pressure Visibility Wind Dir Wind Speed Gust Speed Precip Events Conditions
12:52 AM 30.0 °F 22.4 °F 21.9 °F 72% 30.33 in 10.0 mi NNW 8.1 mph - N/A   Clear
1:52 AM 30.9 °F 22.8 °F 23.0 °F 72% 30.35 in 10.0 mi NNW 9.2 mph - N/A   Clear
2:52 AM 32.0 °F 24.8 °F 23.0 °F 69% 30.36 in 10.0 mi North 8.1 mph - N/A   Clear
3:52 AM 30.0 °F 22.4 °F 23.0 °F 75% 30.36 in 10.0 mi NNW 8.1 mph - N/A   Clear
4:52 AM 28.9 °F 20.4 °F 23.0 °F 78% 30.37 in 10.0 mi NNW 9.2 mph - N/A   Clear
5:52 AM 30.0 °F 21.1 °F 23.0 °F 75% 30.38 in 10.0 mi NNW 10.4 mph - N/A   Clear
6:52 AM 28.9 °F 19.8 °F 21.9 °F 75% 30.39 in 10.0 mi NNW 10.4 mph - N/A   Clear
7:52 AM 30.0 °F 21.1 °F 23.0 °F 75% 30.41 in 10.0 mi NNW 10.4 mph - N/A   Clear
8:52 AM 33.1 °F 26.9 °F 25.0 °F 72% 30.43 in 10.0 mi NNW 6.9 mph - N/A   Clear
9:52 AM 39.9 °F 33.4 °F 26.1 °F 58% 30.45 in 10.0 mi North 10.4 mph - N/A   Clear
10:52 AM 43.0 °F 37.2 °F 23.0 °F 45% 30.45 in 10.0 mi NNW 10.4 mph - N/A   Clear
11:52 AM 46.0 °F 41.4 °F 24.1 °F 42% 30.43 in 10.0 mi NNW 9.2 mph - N/A   Clear
12:52 PM 48.9 °F - 21.0 °F 33% 30.39 in 10.0 mi Variable 5.8 mph - N/A   Clear
1:52 PM 50.0 °F - 19.9 °F 31% 30.36 in 10.0 mi NNE 5.8 mph - N/A   Clear
2:52 PM 51.1 °F - 19.0 °F 28% 30.35 in 10.0 mi NNW 5.8 mph - N/A   Clear
3:52 PM 51.1 °F - 19.0 °F 28% 30.35 in 10.0 mi Calm Calm - N/A   Clear
4:52 PM 48.9 °F - 19.9 °F 32% 30.35 in 10.0 mi Calm Calm - N/A   Clear
5:52 PM 45.0 °F - 19.9 °F 37% 30.34 in 10.0 mi Calm Calm - N/A   Clear
6:52 PM 43.0 °F - 19.9 °F 40% 30.35 in 10.0 mi Calm Calm - N/A   Clear
7:52 PM 39.0 °F - 19.9 °F 46% 30.35 in 10.0 mi Calm Calm - N/A   Clear
8:52 PM 34.0 °F 28.0 °F 19.9 °F 56% 30.35 in 10.0 mi SE 6.9 mph - N/A   Clear
9:52 PM 30.9 °F 25.2 °F 21.0 °F 67% 30.35 in 10.0 mi SSE 5.8 mph - N/A   Clear
10:52 PM 27.0 °F - 19.0 °F 72% 30.35 in 10.0 mi Calm Calm - N/A   Clear
11:52 PM 30.0 °F 25.2 °F 19.9 °F 66% 30.34 in 10.0 mi SSE 4.6 mph - N/A   Clear